Weather History for KL35 - April, 2014

Change the Weather History Date:

Friday, April 4, 2014

  Actual Average (KBUO) Record (KBUO)
Temperature  
Mean Temperature 34 °F -  
Max Temperature 42 °F 57 °F 57 °F (1999)
Min Temperature 26 °F 38 °F 35 °F (1999)
Degree Days  
Heating Degree Days 31    
Moisture  
Dew Point 15 °F    
Average Humidity 50    
Maximum Humidity 80    
Minimum Humidity 11    
Precipitation  
Precipitation 0.00 in - - ()
Sea Level Pressure  
Sea Level Pressure 29.99 in    
Wind  
Wind Speed 3 mph (WSW)    
Max Wind Speed 15 mph    
Max Gust Speed 21 mph    
Visibility 10 miles    
Events      
Averages and records for this station are not official NWS values.
T = Trace of Precipitation, MM = Missing Value Source: NWS Daily Summary

Daily Weather History Graph

Daily Weather History Graph

Search for Another Location

Airport or City:

Trip Planner

Search our weather history database for the weather conditions in past years. The results will help you decide how hot, cold, wet, or windy it might be!

Date:

Astronomy

Apr. 04, 2014 Rise Set
Actual Time 6:30 AM PDT 7:10 PM PDT
Civil Twilight 6:05 AM PDT 7:36 PM PDT
Nautical Twilight 5:35 AM PDT 8:06 PM PDT
Astronomical Twilight 5:04 AM PDT 8:36 PM PDT
Moon 10:00 AM PDT (4/4) No Moon Set
Length of Visible Light 13h 30m
Length of Day
12h 40m
Waxing Crescent, 26% of the Moon is Illuminated
Apr 4
Waxing Crescent
Apr 7
First Quarter
Apr 15
Full
Apr 22
Last Quarter
Apr 28
New

Hourly Weather History & Observations

Time (PDT) Temp. Windchill Dew Point Humidity Pressure Visibility Wind Dir Wind Speed Gust Speed Precip Events Conditions
12:15 AM 26.6 °F - 21.2 °F 80% 30.09 in 10.0 mi Calm Calm - N/A   Mostly Cloudy
12:30 AM 28.4 °F - 21.2 °F 74% 30.09 in 10.0 mi Calm Calm - N/A   Mostly Cloudy
12:55 AM 28.4 °F - 21.2 °F 74% 30.08 in 10.0 mi Calm Calm - N/A   Clear
1:35 AM 28.4 °F - 23.0 °F 80% 30.07 in 10.0 mi Calm Calm - N/A   Mostly Cloudy
1:55 AM 28.4 °F - 23.0 °F 80% 30.06 in 10.0 mi Calm Calm - N/A   Mostly Cloudy
2:15 AM 28.4 °F - 23.0 °F 80% 30.06 in 10.0 mi Calm Calm - N/A   Mostly Cloudy
2:55 AM 30.2 °F - 23.0 °F 75% 30.05 in 10.0 mi Calm Calm - N/A   Scattered Clouds
3:35 AM 30.2 °F - 23.0 °F 75% 30.03 in 10.0 mi Calm Calm - N/A   Mostly Cloudy
3:55 AM 30.2 °F - 23.0 °F 75% 30.02 in 10.0 mi Calm Calm - N/A   Mostly Cloudy
4:30 AM 30.2 °F - 23.0 °F 75% 30.01 in 10.0 mi Calm Calm - N/A   Mostly Cloudy
4:55 AM 30.2 °F - 23.0 °F 75% 30.01 in 10.0 mi Calm Calm - N/A   Mostly Cloudy
5:15 AM 30.2 °F - 23.0 °F 75% 30.00 in 10.0 mi Calm Calm - N/A   Mostly Cloudy
6:00 AM 30.2 °F - 23.0 °F 75% 30.00 in 10.0 mi Calm Calm - N/A   Overcast
6:15 AM 30.2 °F - 23.0 °F 75% 30.01 in 10.0 mi Calm Calm - N/A   Mostly Cloudy
6:55 AM 30.2 °F - 23.0 °F 75% 30.01 in 10.0 mi Calm Calm - N/A   Scattered Clouds
7:15 AM 32.0 °F - 23.0 °F 69% 30.01 in 10.0 mi Calm Calm - N/A   Mostly Cloudy
7:30 AM 32.0 °F - 21.2 °F 64% 30.02 in 10.0 mi Calm Calm - N/A   Mostly Cloudy
7:55 AM 32.0 °F 28.7 °F 17.6 °F 55% 30.01 in 10.0 mi SW 3.5 mph - N/A   Mostly Cloudy
8:20 AM 35.6 °F - 12.2 °F 38% 30.01 in 10.0 mi Calm Calm - N/A   Scattered Clouds
8:50 AM 37.4 °F 32.1 °F 5.0 °F 26% 30.02 in 10.0 mi West 6.9 mph - N/A   Scattered Clouds
9:40 AM 39.2 °F 35.9 °F 5.0 °F 24% 30.02 in 10.0 mi West 4.6 mph - N/A   Mostly Cloudy
10:00 AM 41.0 °F 39.0 °F 10.4 °F 29% 30.02 in 10.0 mi South 3.5 mph - N/A   Mostly Cloudy
10:20 AM 41.0 °F 37.1 °F 1.4 °F 19% 30.03 in 10.0 mi SW 5.8 mph - N/A   Scattered Clouds
10:35 AM 41.0 °F 35.8 °F 1.4 °F 19% 30.03 in 10.0 mi WSW 8.1 mph - N/A   Scattered Clouds
11:15 AM 42.8 °F 38.6 °F 3.2 °F 19% 30.02 in 10.0 mi West 6.9 mph - N/A   Scattered Clouds
11:50 AM 42.8 °F 40.1 °F 1.4 °F 18% 30.01 in 10.0 mi NW 4.6 mph 16.1 mph N/A   Mostly Cloudy
12:15 PM 42.8 °F 39.3 °F -4.0 °F 14% 30.01 in 10.0 mi SSW 5.8 mph - N/A   Scattered Clouds
12:35 PM 42.8 °F 38.0 °F -5.8 °F 13% 30.00 in 10.0 mi SW 8.1 mph - N/A   Scattered Clouds
12:55 PM 42.8 °F 36.6 °F -9.4 °F 11% 30.00 in 10.0 mi West 11.5 mph - N/A   Mostly Cloudy
1:30 PM 42.8 °F 37.5 °F -0.4 °F 16% 30.00 in 10.0 mi West 9.2 mph - N/A   Scattered Clouds
1:55 PM 42.8 °F 36.6 °F 1.4 °F 18% 29.99 in 10.0 mi West 11.5 mph - N/A   Scattered Clouds
2:15 PM 42.8 °F 38.0 °F 5.0 °F 21% 29.99 in 10.0 mi WSW 8.1 mph - N/A   Mostly Cloudy
2:30 PM 42.8 °F 36.6 °F -0.4 °F 16% 29.98 in 10.0 mi West 11.5 mph - N/A   Mostly Cloudy
2:55 PM 42.8 °F 35.4 °F 8.6 °F 25% 29.98 in 10.0 mi West 15.0 mph 20.7 mph N/A   Mostly Cloudy
3:15 PM 42.8 °F 35.8 °F 12.2 °F 29% 29.97 in 10.0 mi WSW 13.8 mph 19.6 mph N/A   Mostly Cloudy
3:35 PM 41.0 °F 34.3 °F 14.0 °F 33% 29.97 in 10.0 mi West 11.5 mph 19.6 mph N/A   Scattered Clouds
3:55 PM 42.8 °F 39.3 °F 14.0 °F 31% 29.96 in 10.0 mi SW 5.8 mph - N/A   Scattered Clouds
4:10 PM 42.8 °F 37.5 °F 15.8 °F 34% 29.96 in 10.0 mi West 9.2 mph - N/A   Scattered Clouds
4:35 PM 41.0 °F 34.7 °F 12.2 °F 31% 29.95 in 10.0 mi SW 10.4 mph 18.4 mph N/A   Clear
5:15 PM 41.0 °F 37.1 °F 10.4 °F 29% 29.94 in 10.0 mi SW 5.8 mph 16.1 mph N/A   Clear
5:35 PM 39.2 °F 35.9 °F 5.0 °F 24% 29.95 in 10.0 mi SSW 4.6 mph - N/A   Clear
5:55 PM 39.2 °F 34.2 °F 8.6 °F 28% 29.95 in 10.0 mi WSW 6.9 mph - N/A   Clear
6:15 PM 37.4 °F 32.1 °F 8.6 °F 30% 29.95 in 10.0 mi SW 6.9 mph - N/A   Clear
6:35 PM 37.4 °F 32.1 °F 8.6 °F 30% 29.94 in 10.0 mi SW 6.9 mph - N/A   Clear
6:55 PM 35.6 °F 30.7 °F 6.8 °F 30% 29.94 in 10.0 mi SW 5.8 mph - N/A   Clear
7:15 PM 35.6 °F 28.6 °F 12.2 °F 38% 29.95 in 10.0 mi West 9.2 mph - N/A   Clear
7:35 PM 33.8 °F 28.6 °F 15.8 °F 48% 29.94 in 10.0 mi WSW 5.8 mph - N/A   Clear
7:55 PM 33.8 °F 27.7 °F 21.2 °F 60% 29.94 in 10.0 mi West 6.9 mph - N/A   Clear
8:15 PM 32.0 °F 26.4 °F 21.2 °F 64% 29.94 in 10.0 mi West 5.8 mph - N/A   Clear
8:35 PM 32.0 °F 27.5 °F 23.0 °F 69% 29.95 in 10.0 mi West 4.6 mph - N/A   Clear
8:55 PM 32.0 °F 27.5 °F 26.6 °F 80% 29.95 in 10.0 mi WSW 4.6 mph - N/A   Clear
9:15 PM 32.0 °F 25.6 °F 23.0 °F 69% 29.95 in 10.0 mi West 6.9 mph - N/A   Clear
9:35 PM 32.0 °F 27.5 °F 21.2 °F 64% 29.95 in 10.0 mi WSW 4.6 mph - N/A   Clear
9:55 PM 32.0 °F 28.7 °F 21.2 °F 64% 29.94 in 10.0 mi WSW 3.5 mph - N/A   Clear
10:15 PM 32.0 °F 25.6 °F 23.0 °F 69% 29.94 in 10.0 mi West 6.9 mph - N/A   Clear
10:35 PM 32.0 °F 26.4 °F 24.8 °F 75% 29.94 in 10.0 mi WSW 5.8 mph - N/A   Clear
10:55 PM 32.0 °F 26.4 °F 26.6 °F 80% 29.94 in 10.0 mi West 5.8 mph - N/A   Clear
11:15 PM 30.2 °F 23.4 °F 24.8 °F 80% 29.94 in 10.0 mi West 6.9 mph - N/A   Clear
11:35 PM 30.2 °F 26.7 °F 24.8 °F 80% 29.94 in 10.0 mi SW 3.5 mph - N/A   Clear
11:55 PM 30.2 °F 26.7 °F 23.0 °F 75% 29.94 in 10.0 mi West 3.5 mph - N/A   Clear